SB KEPS @ AMSAT $ORB12201.N 2Line Orbital Elements 12201.AMSAT
HR AMSAT ORBITAL ELEMENTS FOR AMATEUR SATELLITES IN NASA FORMAT FROM WA5QGD FORT WORTH,TX July 19, 2012 Send SUBSCRIBE KEPS/UNSUBSCRIBE KEPS to majordomo@amsat.org only BID: ORB12201.N
DECODE 2-LINE ELSETS WITH THE FOLLOWING KEY: 1 AAAAAU 00 0 0 BBBBB.BBBBBBBB .CCCCCCCC 00000-0 00000-0 0 DDDZ 2 AAAAA EEE.EEEE FFF.FFFF GGGGGGG HHH.HHHH III.IIII JJ.JJJJJJJJKKKKKZ KEY: A-CATALOGNUM B-EPOCHTIME C-DECAY D-ELSETNUM E-INCLINATION F-RAAN G-ECCENTRICITY H-ARGPERIGEE I-MNANOM J-MNMOTION K-ORBITNUM Z-CHECKSUM
TO ALL RADIO AMATEURS BT
AO-07 1 07530U 74089B 12201.62616761 -.00000027 00000-0 10000-3 0 4342 2 07530 101.4038 197.5860 0011582 218.7615 141.2625 12.53590272724119 FO-29 1 24278U 96046B 12200.83521643 -.00000091 00000-0 -53816-4 0 09073 2 24278 098.5858 297.3515 0350065 307.5287 049.4512 13.52984938786234 SO-33 1 25509U 98061B 12200.92143166 .00000329 00000-0 53989-4 0 2795 2 25509 031.4293 154.0988 0352262 121.0690 242.4994 14.28792689717194 RS-22 1 27939U 03042A 12201.87096181 .00000504 00000-0 10442-3 0 5523 2 27939 097.8102 041.0073 0013798 157.1026 203.0791 14.64072202470667 VO-52 1 28650U 05017B 12200.90147806 .00001066 00000-0 13661-3 0 1573 2 28650 097.5965 230.3034 0025213 298.5858 061.2813 14.83052442389674 HO-68 1 36122U 09072B 12201.74662153 -.00000044 00000-0 000000 0 6605 2 36122 100.3601 260.4346 0007700 037.9884 322.1771 13.16296782124673 UO-11 1 14781U 84021B 12200.95418816 .00000758 00000-0 10585-3 0 09243 2 14781 097.9528 260.1945 0007837 294.0935 065.9459 14.80497740524639 AO-16 1 20439U 90005D 12201.85623339 .00000107 00000-0 55763-4 0 5148 2 20439 098.4326 144.3184 0011942 063.3201 296.9201 14.32067279174674 LO-19 1 20442U 90005G 12200.89626037 .00000064 00000-0 39209-4 0 04578 2 20442 098.3973 146.2794 0012797 058.2935 301.9495 14.32284333174729 AO-27 1 22825U 93061C 12200.88411511 .00000197 00000-0 94315-4 0 01605 2 22825 098.5749 143.2069 0008509 180.2358 179.8819 14.29472050981002 IO-26 1 22826U 93061D 12201.85867016 .00000090 00000-0 51834-4 0 9057 2 22826 098.5694 144.5289 0008700 172.0724 188.0594 14.29746850981272 GO-32 1 25397U 98043D 12200.82183267 .00000100 00000-0 62100-4 0 08287 2 25397 098.3650 177.9771 0001464 146.4415 213.6865 14.23283835728522 NO-44 1 26931U 01043C 12200.86843561 -.00000088 00000-0 -19793-5 0 910 2 26931 067.0510 038.6882 0007570 259.3791 100.6465 14.29812241563776 SO-50 1 27607U 02058C 12200.48063048 .00000663 00000-0 12064-3 0 08164 2 27607 064.5552 199.7009 0081425 242.4339 116.8478 14.72435601514573 CO-55 1 27844U 03031E 12200.60662714 -.00000022 00000-0 99569-5 0 4206 2 27844 098.6998 208.5295 0010412 128.2293 231.9845 14.21043725469350 CO-57 1 27848U 03031J 12200.54536543 -.00000265 00000-0 -10262-3 0 03719 2 27848 098.7116 207.8165 0010457 132.8963 227.3088 14.20792352469285 AO-51 1 28375U 04025K 12200.81348108 .00000153 00000-0 58833-4 0 3190 2 28375 098.1501 164.6214 0083514 306.0401 053.3072 14.40966295423320 CP3 1 31129U 07012N 12201.58413951 .00000951 00000-0 22510-3 0 2168 2 31129 097.8833 207.4524 0101554 023.1559 337.4162 14.53132399278688 CO-65 1 32785U 08021C 12200.82085115 .00001576 00000-0 19977-3 0 3631 2 32785 097.7983 261.1212 0013911 323.1125 036.9117 14.83064535228454 PRISM 1 33493U 09002B 12201.89563632 .00002482 00000-0 30385-3 0 8965 2 33493 098.1745 343.2467 0018700 186.9513 173.1445 14.84039804188605 SOHLA-1 1 33496U 09002E 12200.89264043 .00000485 00000-0 89083-4 0 07905 2 33496 098.1074 312.4229 0005694 306.4889 053.5783 14.69998930186904 SO-67 1 35870U 09049F 12201.87270235 .00004389 00000-0 18360-3 0 1543 2 35870 097.2308 236.4714 0003899 071.2384 341.2358 15.24075212157597 TISAT-1 1 36799U 10035E 12201.68141166 .00001723 00000-0 22325-3 0 1725 2 36799 098.0615 278.2536 0016358 069.2699 291.0261 14.82064533109302 STUDSAT 1 36801U 10035G 12201.83099192 .00004467 00000-0 53445-3 0 4343 2 36801 098.0681 279.2663 0013594 056.9091 303.3422 14.84606056109365 FO-69 1 37227U 0 12179.46825757 .00000166 00000-0 31335-4 0 02192 2 37227 071.9703 289.2712 0018108 298.3339 061.6016 14.77092260037611 FO-70 1 37380U 0 12179.47554455 .00000208 00000-0 37493-4 0 02230 2 37380 071.9743 289.8278 0018623 295.0880 064.8372 14.76843679037500 ALMASAT-1 1 38078U 12006B 12201.61564563 .00017561 00000-0 48200-3 0 3998 2 38078 069.4884 243.7564 0755179 208.2422 147.5328 14.10276347 22124 XATCOBEO 1 38082U 12006F 12201.51420561 .00038704 00000-0 92844-3 0 4098 2 38082 069.4894 241.2800 0728012 207.0081 149.1129 14.18692958 22170 NOAA-10 1 16969U 86073A 12200.98089802 .00000114 00000-0 63829-4 0 00072 2 16969 098.5809 229.4665 0012787 138.6612 221.5541 14.27564252344401 NOAA-11 1 19531U 88089A 12200.75319988 -.00000145 00000-0 -52433-4 0 09956 2 19531 098.7332 285.2485 0011843 131.3162 228.9042 14.14973055228975 NOAA-12 1 21263U 91032A 12200.98401661 .00000003 00000-0 19785-4 0 05026 2 21263 098.7274 222.4975 0014792 107.7328 252.5468 14.25507219101083 MET-3/5 1 21655U 91056A 12200.82758926 .00000425 00000-0 10720-2 0 4596 2 21655 082.5583 129.8399 0012303 240.4812 119.5084 13.17035768 6053 MET-2/21 1 22782U 93055A 12200.82878196 .00000115 00000-0 90359-4 0 04764 2 22782 082.5463 007.4024 0023944 065.7711 294.5960 13.83685708953547 OKEAN-4 1 23317U 94066A 12200.92830340 .00000889 00000-0 10400-3 0 09493 2 23317 082.5386 001.5245 0019762 245.9463 113.9685 14.83852450959517 NOAA-14 1 23455U 94089A 12200.96222992 -.00000012 00000-0 17094-4 0 09826 2 23455 098.8261 284.0617 0008702 226.2283 133.8166 14.13909303905280 NOAA-15 1 25338U 98030A 12200.93247165 .00000250 00000-0 12539-3 0 03380 2 25338 098.6910 187.5439 0011080 021.7936 338.3745 14.25096219737370 RESURS 1 25394U 98043A 12201.92768328 .00000042 00000-0 35759-4 0 1405 2 25394 098.3218 188.4443 0001946 115.3927 244.7455 14.24290885729064 FENGYUN1 1 25730U 99025A 12200.94239122 .00001066 00000-0 63214-3 0 06639 2 25730 098.8462 159.3732 0018083 276.4478 083.4628 14.09669706679083 OKEAN-0 1 25860U 99039A 12200.95732074 .00000456 00000-0 76489-4 0 6847 2 25860 097.9383 162.9551 0001595 098.7849 261.3539 14.74244833699256 NOAA-16 1 26536U 00055A 12200.90758680 -.00000001 00000-0 24326-4 0 08251 2 26536 099.0913 243.5168 0010365 000.1340 359.9837 14.12758808609516 NOAA-17 1 27453U 02032A 12200.91277566 .00000113 00000-0 66491-4 0 07753 2 27453 098.3356 226.3453 0012645 066.3930 293.8583 14.24459300523276 NOAA-18 1 28654U 05018A 12200.88966034 .00000100 00000-0 79797-4 0 02568 2 28654 099.0469 159.2442 0015260 066.9690 293.3126 14.11673944369038 NOAA-19 1 33591U 09005A 12200.90459681 .00000138 00000-0 10043-3 0 04462 2 33591 098.8645 140.3017 0013316 294.3280 065.6538 14.11361022177482 HUBBLE 1 20580U 90037B 12200.40833987 .00002046 00000-0 13749-3 0 362 2 20580 028.4719 299.2153 0003410 034.1357 325.9826 15.02634001 19434 ISS 1 25544U 98067A 12201.84316478 .00007802 00000-0 12290-3 0 9610 2 25544 051.6440 319.1582 0000617 251.2853 250.9889 15.54589930783098 CO-58 1 28895U 05043F 12201.55350930 .00000777 00000-0 16835-3 0 2293 2 28895 097.9096 066.3971 0018803 052.2996 307.9932 14.60682039358388 FALCON 1 30776U 07006E 12200.97575868 .00003721 00000-0 24097-3 0 04113 2 30776 035.4299 082.6474 0003229 291.7443 068.2928 15.07773502295057 MAST 1 31126U 07012K 12200.94327923 .00000734 00000-0 17359-3 0 05142 2 31126 097.8744 210.1860 0094266 012.4199 347.9301 14.54203250278881 CAPE1 1 31130U 07012P 12201.55670407 .00000634 00000-0 15385-3 0 5206 2 31130 097.8809 207.1272 0102135 024.0172 336.5739 14.52994851278472 COMPASS 1 32787U 08021E 12201.76953274 .00001498 00000-0 18543-3 0 3593 2 32787 097.7987 262.3834 0014220 317.3425 042.6650 14.84129099228640 AAUSAT2 1 32788U 08021F 12201.73198893 .00002186 00000-0 26557-3 0 3509 2 32788 097.8011 262.7458 0013628 318.4504 041.5651 14.84462958228662 DO-64 1 32789U 08021G 12200.73590359 .00004462 00000-0 51533-3 0 03671 2 32789 097.8114 263.9139 0013610 317.3822 042.6307 14.86036028228564 CO-66 1 32791U 08021J 12200.69301944 .00001895 00000-0 23629-3 0 03514 2 32791 097.7992 261.0464 0014912 320.9391 039.0738 14.83523496228416 RS-30 1 32953U 08025A 12201.72655719 .00000010 00000-0 000000 0 9759 2 32953 082.5022 274.9055 0017681 234.2672 125.6764 12.43025698188608 TACSAT-3 1 35001U 09028A 12121.72616188 .15204951 73582-5 42606-3 0 00016 2 35001 040.4259 351.8840 0007146 275.2650 085.0693 16.45157000166990 PHARMSAT 1 35002U 09028B 12201.45821037 .00255372 32223-4 55885-3 0 9966 2 35002 040.4540 218.9289 0011236 146.4887 213.6446 15.97215367179468 METEOR-M 1 35865U 09049A 12201.23790677 -.00000020 00000-0 10530-4 0 6034 2 35865 098.6525 254.9594 0002153 342.2466 017.8637 14.21865835147153 RS-38 1 35869U 09049E 12201.67644751 .00000030 00000-0 33015-4 0 6131 2 35869 098.6477 255.3796 0004182 329.4063 030.6869 14.22079035147235 JUGNU 1 37839U 11058B 12200.26351213 .00000620 00000-0 19019-3 0 01907 2 37839 019.9630 169.9537 0019263 204.6208 155.3278 14.12065837039643 SRMSAT 1 37841U 11058D 12200.28958742 .00000264 00000-0 00000-0 0 01891 2 37841 019.9730 175.2863 0012247 172.7338 187.3245 14.10150716039595 RAX-2 1 37853U 11061D 12201.76815099 .00001624 00000-0 13806-3 0 2342 2 37853 101.7121 256.7929 0246311 257.9165 099.4329 14.80217736 39213 AUBIESAT 1 37854U 11061E 12200.70065492 .00002829 00000-0 22845-3 0 02419 2 37854 101.7138 255.5296 0246996 260.1729 097.1505 14.80611720039051 HRBE 1 37855U 11061F 12200.85264582 .00002858 00000-0 23133-3 0 02432 2 37855 101.7137 255.6951 0247369 259.9359 097.3835 14.80459975039072 RS-39 1 38051U 11062C 12201.90795295 .00007949 00000-0 32863-3 0 5292 2 38051 051.6357 003.8643 0014532 151.4545 344.5933 15.24786586 26966 E-STAR 1 38079U 12006C 12202.08872497 .00027389 00000-0 66006-3 0 3644 2 38079 069.4890 240.3859 0736232 206.3991 149.7387 14.16900223 22246 GOLIAT 1 38085U 12006J 12201.46751099 .00030507 00000-0 72610-3 0 3336 2 38085 069.4935 242.1772 0742165 207.5635 148.3563 14.15870739 22144 HORYU-2 1 38340U 12025D 12201.83927483 .00000923 00000-0 16213-3 0 540 2 38340 098.1754 141.6426 0011982 223.9463 136.0691 14.70046418 9277 /EX